M I D A S
Marine Information and Data Acquisition System
Tripno 1746 of the Zeeleeuw from 2009-08-05 07:12:31 to 2009-08-05 14:17:09
Back to CruiseResearch ActivitiesStationsMapUnderway DataData graphs

EquipmentUnitsComments
TimeDGPSUTC
LatitudeDGPSDM.mWGS84
LongitudeDGPSDM.mWGS84
SpeedMeteo Stationm/sRelative wind speed
DirectionMeteo StationdegRelative wind direction
TemperatureMeteo Stationdeg CelciusAir temperature
PressureMeteo StationPaAtmospheric pressure
HumidityMeteo Station%Relative humidity
Missing or incorrect values are displayed as -999
Metereological data collected by the RV Zeeleeuw from 2009-08-05 06:03:10 to 2009-08-05 15:33:31
                                                                                    Next 1000 lines
Time Latitude Longitude Speed Direction Temperature Pressure Humidity
2009-08-05 06:03:21 51°13.659 2°55.96 2.1 336 18.9 101910 46
2009-08-05 06:03:25 51°13.659 2°55.959 0.5 351 18.9 101910 46
2009-08-05 06:03:31 51°13.66 2°55.959 0.1 346 19 101910 46
2009-08-05 06:03:35 51°13.66 2°55.959 3 345 19 101910 46
2009-08-05 06:03:40 51°13.66 2°55.959 3.1 344 19 101910 47
2009-08-05 06:03:44 51°13.66 2°55.959 2.2 353 19 101910 47
2009-08-05 06:03:50 51°13.66 2°55.959 1.6 350 19 101910 47
2009-08-05 06:03:55 51°13.66 2°55.959 2.4 357 19 101910 47
2009-08-05 06:03:59 51°13.66 2°55.959 2.9 350 19 101910 46
2009-08-05 06:04:04 51°13.66 2°55.959 2.7 343 19 101910 46
2009-08-05 06:04:09 51°13.661 2°55.959 2.7 352 19 101910 46
2009-08-05 06:04:13 51°13.661 2°55.959 2.3 342 19 101910 46
2009-08-05 06:04:18 51°13.661 2°55.959 2.3 342 19 101910 46
2009-08-05 06:04:23 51°13.661 2°55.959 3 353 19 101910 46
2009-08-05 06:04:28 51°13.661 2°55.959 2.2 350 19 101900 47
2009-08-05 06:04:33 51°13.661 2°55.959 2.3 341 19 101900 47
2009-08-05 06:04:38 51°13.661 2°55.959 3.2 338 19 101910 45
2009-08-05 06:04:43 51°13.661 2°55.959 2.8 338 19 101910 45
2009-08-05 06:04:48 51°13.662 2°55.959 2.3 335 19 101900 46
2009-08-05 06:04:52 51°13.662 2°55.959 2.5 346 19 101900 46
2009-08-05 06:04:56 51°13.662 2°55.959 2.8 345 19 101910 46
2009-08-05 06:05:02 51°13.662 2°55.959 2.3 335 19 101910 46
2009-08-05 06:05:06 51°13.662 2°55.959 2.7 344 19 101910 47
2009-08-05 06:05:12 51°13.662 2°55.96 2.5 352 19 101910 47
2009-08-05 06:05:17 51°13.662 2°55.96 2.1 6 19.1 101910 47
2009-08-05 06:05:22 51°13.662 2°55.96 3.4 285 19.1 101910 47
2009-08-05 06:05:27 51°13.662 2°55.96 4.1 344 19.1 101910 46
2009-08-05 06:05:32 51°13.662 2°55.96 3.2 347 19.1 101910 46
2009-08-05 06:05:36 51°13.662 2°55.96 3.9 338 19.1 101910 47
2009-08-05 06:05:41 51°13.662 2°55.96 2.9 353 19.1 101910 47
2009-08-05 06:05:47 51°13.662 2°55.96 3.5 347 19.1 101900 46
2009-08-05 06:05:52 51°13.662 2°55.96 2.9 352 19.1 101900 46
2009-08-05 06:05:56 51°13.662 2°55.96 2.7 340 19.1 101900 47
2009-08-05 06:06:02 51°13.662 2°55.96 3.1 346 19.1 101900 47
2009-08-05 06:06:07 51°13.662 2°55.96 3.6 339 19.1 101910 46
2009-08-05 06:06:12 51°13.662 2°55.96 3.4 335 19.1 101910 46
2009-08-05 06:06:17 51°13.662 2°55.96 3.5 336 19.1 101910 46
2009-08-05 06:06:22 51°13.662 2°55.96 3.3 346 19.1 101910 46
2009-08-05 06:06:26 51°13.662 2°55.96 3.8 340 19.1 101900 47
2009-08-05 06:06:32 51°13.662 2°55.96 3.2 342 19.1 101900 47
2009-08-05 06:06:36 51°13.662 2°55.96 3 350 19.1 101900 47
2009-08-05 06:06:42 51°13.662 2°55.96 3.6 356 19.1 101900 47
2009-08-05 06:06:47 51°13.662 2°55.96 2.6 344 19.1 101900 46
2009-08-05 06:06:51 51°13.662 2°55.96 2.6 334 19.1 101900 46
2009-08-05 06:06:56 51°13.662 2°55.96 2.4 337 19.1 101900 47
2009-08-05 06:07:02 51°13.662 2°55.96 3.6 337 19.1 101900 47
2009-08-05 06:07:07 51°13.662 2°55.96 3.5 336 19.1 101910 46
2009-08-05 06:07:12 51°13.662 2°55.96 3.8 330 19.1 101910 46
2009-08-05 06:07:16 51°13.662 2°55.96 3.5 340 19.1 101910 45
2009-08-05 06:07:22 51°13.662 2°55.96 3.2 279 19.1 101910 45
2009-08-05 06:07:27 51°13.662 2°55.96 2.9 342 19.1 101900 46
2009-08-05 06:07:32 51°13.662 2°55.96 3.5 340 19.1 101900 46
2009-08-05 06:07:36 51°13.662 2°55.96 2.8 339 19.1 101900 47
2009-08-05 06:07:42 51°13.662 2°55.96 2.8 343 19.1 101900 47
2009-08-05 06:07:47 51°13.662 2°55.96 3.5 347 19.1 101900 46
2009-08-05 06:07:52 51°13.662 2°55.96 3.1 344 19.1 101900 46
2009-08-05 06:07:56 51°13.662 2°55.96 2.4 348 19.1 101900 47
2009-08-05 06:08:01 51°13.662 2°55.96 2.7 351 19.1 101900 47
2009-08-05 06:08:07 51°13.662 2°55.96 2.4 345 19.2 101910 46
2009-08-05 06:08:12 51°13.662 2°55.959 2.9 343 19.2 101910 46
2009-08-05 06:08:17 51°13.662 2°55.959 3.3 337 19.2 101910 46
2009-08-05 06:08:21 51°13.662 2°55.959 4.1 340 19.2 101910 46
2009-08-05 06:08:27 51°13.662 2°55.959 3.2 345 19.2 101910 47
2009-08-05 06:08:32 51°13.662 2°55.959 2.8 342 19.2 101910 47
2009-08-05 06:08:36 51°13.662 2°55.959 3.2 337 19.2 101900 46
2009-08-05 06:08:42 51°13.662 2°55.959 4.2 340 19.2 101900 46
2009-08-05 06:08:47 51°13.662 2°55.959 3.1 347 19.2 101900 47
2009-08-05 06:08:52 51°13.662 2°55.959 4.4 348 19.2 101900 47
2009-08-05 06:08:57 51°13.662 2°55.959 3.9 347 19.2 101910 47
2009-08-05 06:09:02 51°13.662 2°55.959 2.8 339 19.2 101910 47
2009-08-05 06:09:07 51°13.662 2°55.959 2.8 347 19.2 101900 47
2009-08-05 06:09:12 51°13.662 2°55.959 2.6 343 19.2 101900 47
2009-08-05 06:09:16 51°13.662 2°55.959 3.2 341 19.2 101900 46
2009-08-05 06:09:22 51°13.662 2°55.959 3.5 284 19.2 101900 46
2009-08-05 06:09:27 51°13.662 2°55.959 3.9 346 19.2 101910 46
2009-08-05 06:09:32 51°13.662 2°55.959 3.1 348 19.2 101910 46
2009-08-05 06:09:36 51°13.662 2°55.959 3.2 344 19.2 101900 46
2009-08-05 06:09:41 51°13.662 2°55.959 3.3 335 19.2 101900 46
2009-08-05 06:09:47 51°13.662 2°55.959 2.7 344 19.2 101910 47
2009-08-05 06:09:52 51°13.662 2°55.959 2.2 341 19.2 101910 47
2009-08-05 06:09:56 51°13.662 2°55.959 2.3 343 19.2 101910 46
2009-08-05 06:10:02 51°13.662 2°55.959 2.9 341 19.2 101910 46
2009-08-05 06:10:07 51°13.662 2°55.959 2.6 343 19.2 101900 46
2009-08-05 06:10:12 51°13.662 2°55.959 3 339 19.2 101900 46
2009-08-05 06:10:16 51°13.662 2°55.959 2.8 338 19.3 101910 47
2009-08-05 06:10:21 51°13.662 2°55.959 3.2 344 19.3 101910 47
2009-08-05 06:10:27 51°13.662 2°55.959 2.9 346 19.3 101900 47
2009-08-05 06:10:32 51°13.662 2°55.959 3.1 345 19.3 101900 47
2009-08-05 06:10:36 51°13.662 2°55.959 2.8 346 19.3 101900 47
2009-08-05 06:10:42 51°13.662 2°55.959 3.2 336 19.3 101900 47
2009-08-05 06:10:47 51°13.662 2°55.959 3.2 333 19.3 101900 47
2009-08-05 06:10:52 51°13.662 2°55.959 3.5 335 19.3 101900 47
2009-08-05 06:10:56 51°13.662 2°55.959 2.7 346 19.3 101910 46
2009-08-05 06:11:02 51°13.662 2°55.959 3.3 344 19.3 101910 46
2009-08-05 06:11:07 51°13.662 2°55.959 4 340 19.3 101900 47
2009-08-05 06:11:12 51°13.662 2°55.959 3.7 335 19.3 101900 47
2009-08-05 06:11:16 51°13.662 2°55.959 3.6 342 19.3 101900 47
2009-08-05 06:11:22 51°13.662 2°55.959 3.2 278 19.3 101900 47
2009-08-05 06:11:27 51°13.662 2°55.959 3.5 341 19.3 101900 45
2009-08-05 06:11:31 51°13.662 2°55.959 3.6 339 19.3 101900 45
2009-08-05 06:11:36 51°13.662 2°55.959 4 337 19.3 101900 46
2009-08-05 06:11:42 51°13.662 2°55.959 4.1 338 19.3 101900 46
2009-08-05 06:11:47 51°13.662 2°55.959 3.4 338 19.3 101900 46
2009-08-05 06:11:52 51°13.662 2°55.959 4.2 342 19.3 101900 46
2009-08-05 06:11:56 51°13.662 2°55.959 4.2 344 19.3 101900 46
2009-08-05 06:12:02 51°13.662 2°55.959 4.5 344 19.3 101900 46
2009-08-05 06:12:07 51°13.662 2°55.959 3.8 351 19.4 101900 46
2009-08-05 06:12:12 51°13.662 2°55.959 3.5 343 19.4 101900 46
2009-08-05 06:12:16 51°13.662 2°55.959 4.2 345 19.4 101900 46
2009-08-05 06:12:22 51°13.662 2°55.959 4.2 350 19.4 101900 46
2009-08-05 06:12:27 51°13.662 2°55.959 4.7 347 19.4 101900 46
2009-08-05 06:12:32 51°13.662 2°55.959 5.2 345 19.4 101900 46
2009-08-05 06:12:36 51°13.662 2°55.959 5.4 351 19.4 101900 45
2009-08-05 06:12:42 51°13.662 2°55.959 3.6 350 19.4 101900 45
2009-08-05 06:12:47 51°13.662 2°55.959 3.3 341 19.4 101900 46
2009-08-05 06:12:52 51°13.662 2°55.959 2.9 341 19.4 101900 46
2009-08-05 06:12:56 51°13.662 2°55.959 3.1 350 19.4 101900 45
2009-08-05 06:13:02 51°13.662 2°55.959 2.8 341 19.4 101900 45
2009-08-05 06:13:07 51°13.662 2°55.959 3.2 343 19.4 101900 46
2009-08-05 06:13:12 51°13.662 2°55.959 3.6 342 19.4 101900 46
2009-08-05 06:13:17 51°13.662 2°55.959 3.3 341 19.4 101900 46
2009-08-05 06:13:22 51°13.662 2°55.959 2.9 279 19.4 101900 46
2009-08-05 06:13:27 51°13.662 2°55.959 3.1 343 19.4 101900 46
2009-08-05 06:13:31 51°13.662 2°55.959 3.7 342 19.4 101900 46
2009-08-05 06:13:36 51°13.662 2°55.959 3.1 348 19.4 101900 46
2009-08-05 06:13:42 51°13.662 2°55.959 3.5 333 19.4 101900 46
2009-08-05 06:13:47 51°13.662 2°55.959 3.1 336 19.4 101900 46
2009-08-05 06:13:51 51°13.662 2°55.959 3 344 19.4 101900 46
2009-08-05 06:13:56 51°13.662 2°55.959 3.3 338 19.4 101900 45
2009-08-05 06:14:02 51°13.662 2°55.959 4.9 338 19.4 101900 45
2009-08-05 06:14:07 51°13.662 2°55.959 4.5 346 19.4 101900 45
2009-08-05 06:14:12 51°13.662 2°55.959 3.7 350 19.4 101900 45
2009-08-05 06:14:16 51°13.662 2°55.959 3.2 340 19.4 101900 46
2009-08-05 06:14:22 51°13.662 2°55.959 2.6 348 19.4 101900 46
2009-08-05 06:14:27 51°13.662 2°55.959 2.9 348 19.4 101900 46
2009-08-05 06:14:32 51°13.662 2°55.959 2.6 342 19.4 101900 46
2009-08-05 06:14:36 51°13.662 2°55.96 4.2 344 19.4 101890 45
2009-08-05 06:14:42 51°13.662 2°55.96 5 348 19.4 101890 45
2009-08-05 06:14:47 51°13.662 2°55.96 4.1 340 19.5 101900 45
2009-08-05 06:14:52 51°13.662 2°55.96 3.7 342 19.5 101900 45
2009-08-05 06:14:57 51°13.662 2°55.96 2.5 339 19.5 101900 45
2009-08-05 06:15:02 51°13.662 2°55.96 3.3 342 19.5 101900 45
2009-08-05 06:15:06 51°13.662 2°55.96 2.9 348 19.5 101890 46
2009-08-05 06:15:12 51°13.662 2°55.96 2.5 341 19.5 101890 46
2009-08-05 06:15:16 51°13.663 2°55.96 2.7 349 19.5 101900 45
2009-08-05 06:15:22 51°13.662 2°55.96 3.2 284 19.5 101900 45
2009-08-05 06:15:27 51°13.662 2°55.96 3.2 349 19.5 101900 46
2009-08-05 06:15:32 51°13.662 2°55.96 3.8 341 19.5 101900 46
2009-08-05 06:15:36 51°13.662 2°55.96 3.6 342 19.5 101900 46
2009-08-05 06:15:42 51°13.662 2°55.96 2.7 337 19.5 101900 46
2009-08-05 06:15:47 51°13.662 2°55.96 3 335 19.5 101900 45
2009-08-05 06:15:51 51°13.662 2°55.96 2.9 345 19.5 101900 45
2009-08-05 06:15:56 51°13.662 2°55.96 3 341 19.6 101900 46
2009-08-05 06:16:02 51°13.662 2°55.96 4.5 344 19.6 101900 46
2009-08-05 06:16:07 51°13.662 2°55.96 3.8 349 19.6 101900 46
2009-08-05 06:16:12 51°13.662 2°55.96 3.3 344 19.6 101900 46
2009-08-05 06:16:16 51°13.662 2°55.96 4.6 352 19.6 101900 46
2009-08-05 06:16:22 51°13.662 2°55.96 3.8 358 19.6 101900 46
2009-08-05 06:16:27 51°13.662 2°55.96 3.8 342 19.6 101900 45
2009-08-05 06:16:32 51°13.662 2°55.96 3.7 345 19.6 101900 45
2009-08-05 06:16:36 51°13.662 2°55.96 3.2 335 19.6 101900 45
2009-08-05 06:16:42 51°13.662 2°55.96 4.1 352 19.6 101900 45
2009-08-05 06:16:47 51°13.662 2°55.96 3.7 341 19.6 101900 45
2009-08-05 06:16:52 51°13.662 2°55.96 5.1 343 19.6 101900 45
2009-08-05 06:16:56 51°13.662 2°55.96 4.5 345 19.6 101890 45
2009-08-05 06:17:02 51°13.662 2°55.96 5.3 338 19.6 101890 45
2009-08-05 06:17:07 51°13.662 2°55.96 5 340 19.7 101890 46
2009-08-05 06:17:12 51°13.662 2°55.961 4.4 350 19.7 101890 46
2009-08-05 06:17:16 51°13.662 2°55.961 4.3 352 19.7 101900 45
2009-08-05 06:17:22 51°13.663 2°55.961 3.7 352 19.7 101900 45
2009-08-05 06:17:27 51°13.663 2°55.961 4.1 352 19.7 101900 46
2009-08-05 06:17:32 51°13.663 2°55.961 3.1 354 19.7 101900 46
2009-08-05 06:17:36 51°13.663 2°55.961 3.2 350 19.7 101890 46
2009-08-05 06:17:42 51°13.663 2°55.961 3.2 346 19.7 101890 46
2009-08-05 06:17:47 51°13.663 2°55.961 3.1 335 19.7 101900 45
2009-08-05 06:17:51 51°13.662 2°55.961 2.8 344 19.7 101900 45
2009-08-05 06:17:56 51°13.662 2°55.961 2.9 336 19.7 101900 45
2009-08-05 06:18:02 51°13.662 2°55.961 4 335 19.7 101900 45
2009-08-05 06:18:07 51°13.662 2°55.961 3.1 343 19.7 101890 46
2009-08-05 06:18:12 51°13.662 2°55.961 4.5 342 19.7 101890 46
2009-08-05 06:18:16 51°13.662 2°55.961 3.9 345 19.7 101900 45
2009-08-05 06:18:22 51°13.663 2°55.961 2.8 351 19.7 101900 45
2009-08-05 06:18:27 51°13.663 2°55.961 3.7 341 19.7 101900 46
2009-08-05 06:18:32 51°13.663 2°55.961 2.8 337 19.7 101900 46
2009-08-05 06:18:36 51°13.663 2°55.961 3.5 336 19.7 101900 46
2009-08-05 06:18:42 51°13.663 2°55.961 3.1 346 19.7 101900 46
2009-08-05 06:18:47 51°13.663 2°55.961 4.1 340 19.8 101900 46
2009-08-05 06:18:51 51°13.663 2°55.961 4 342 19.8 101900 46
2009-08-05 06:18:56 51°13.663 2°55.961 3.6 343 19.8 101900 45
2009-08-05 06:19:02 51°13.663 2°55.961 3.1 336 19.8 101900 45
2009-08-05 06:19:07 51°13.663 2°55.961 3.1 338 19.7 101900 46
2009-08-05 06:19:12 51°13.663 2°55.961 3.7 342 19.7 101900 46
2009-08-05 06:19:16 51°13.663 2°55.961 4.3 353 19.8 101900 46
2009-08-05 06:19:22 51°13.663 2°55.961 4 349 19.8 101900 46
2009-08-05 06:19:27 51°13.663 2°55.961 4.3 346 19.8 101900 46
2009-08-05 06:19:32 51°13.663 2°55.961 3.5 352 19.8 101900 46
2009-08-05 06:19:36 51°13.663 2°55.96 4.7 349 19.8 101900 45
2009-08-05 06:19:42 51°13.663 2°55.96 4.5 353 19.8 101900 45
2009-08-05 06:19:47 51°13.663 2°55.96 4.4 350 19.8 101900 46
2009-08-05 06:19:52 51°13.663 2°55.96 3.6 349 19.8 101900 46
2009-08-05 06:19:57 51°13.663 2°55.96 3.5 356 19.8 101900 45
2009-08-05 06:20:02 51°13.663 2°55.96 3.5 349 19.8 101900 45
2009-08-05 06:20:07 51°13.663 2°55.96 3 342 19.8 101900 45
2009-08-05 06:20:12 51°13.663 2°55.96 2.7 340 19.8 101900 45
2009-08-05 06:20:17 51°13.663 2°55.96 2.8 345 19.8 101900 45
2009-08-05 06:20:22 51°13.663 2°55.96 3.8 352 19.8 101900 45
2009-08-05 06:20:27 51°13.662 2°55.96 4.5 353 19.8 101900 45
2009-08-05 06:20:32 51°13.663 2°55.96 4.1 357 19.8 101900 45
2009-08-05 06:20:36 51°13.663 2°55.96 3.6 345 19.8 101900 45
2009-08-05 06:20:42 51°13.663 2°55.96 4 346 19.8 101900 45
2009-08-05 06:20:47 51°13.663 2°55.96 4 346 19.9 101900 45
2009-08-05 06:20:52 51°13.663 2°55.96 5.5 349 19.9 101900 45
2009-08-05 06:20:56 51°13.663 2°55.959 5.1 353 19.8 101900 45
2009-08-05 06:21:02 51°13.663 2°55.959 5.9 347 19.8 101900 45
2009-08-05 06:21:07 51°13.663 2°55.959 4.7 347 19.8 101900 45
2009-08-05 06:21:12 51°13.663 2°55.96 4.3 357 19.8 101900 45
2009-08-05 06:21:16 51°13.663 2°55.96 4.1 354 19.9 101900 45
2009-08-05 06:21:22 51°13.663 2°55.96 2.7 353 19.9 101900 45
2009-08-05 06:21:27 51°13.663 2°55.959 3.5 352 19.9 101900 45
2009-08-05 06:21:32 51°13.663 2°55.959 3.4 339 19.9 101900 45
2009-08-05 06:21:36 51°13.663 2°55.959 4.4 345 19.9 101900 45
2009-08-05 06:21:42 51°13.663 2°55.959 5.6 348 19.9 101900 45
2009-08-05 06:21:47 51°13.663 2°55.959 3.6 342 19.9 101900 44
2009-08-05 06:21:52 51°13.663 2°55.959 3.8 347 19.9 101900 44
2009-08-05 06:21:57 51°13.663 2°55.959 3.9 348 19.9 101900 46
2009-08-05 06:22:02 51°13.663 2°55.959 3.1 355 19.9 101900 46
2009-08-05 06:22:06 51°13.663 2°55.959 3.4 -999 19.9 101900 45
2009-08-05 06:22:12 51°13.663 2°55.959 3.2 345 19.9 101900 45
2009-08-05 06:22:16 51°13.663 2°55.959 3.4 353 19.9 101900 46
2009-08-05 06:22:22 51°13.663 2°55.959 4.8 351 19.9 101900 46
2009-08-05 06:22:27 51°13.663 2°55.959 4.2 347 19.9 101900 46
2009-08-05 06:22:32 51°13.663 2°55.959 4.9 351 19.9 101900 46
2009-08-05 06:22:36 51°13.663 2°55.959 4.7 356 20 101900 45
2009-08-05 06:22:42 51°13.663 2°55.959 3.6 351 20 101900 45
2009-08-05 06:22:47 51°13.663 2°55.959 4 352 19.9 101900 45
2009-08-05 06:22:52 51°13.663 2°55.959 3.6 352 19.9 101900 45
2009-08-05 06:22:57 51°13.663 2°55.959 3.2 348 19.9 101900 44
2009-08-05 06:23:02 51°13.663 2°55.959 3.9 358 19.9 101900 44
2009-08-05 06:23:07 51°13.663 2°55.959 3.8 5 19.9 101900 44
2009-08-05 06:23:12 51°13.663 2°55.959 2.7 3 19.9 101900 44
2009-08-05 06:23:16 51°13.663 2°55.959 2.7 356 20 101900 44
2009-08-05 06:23:22 51°13.663 2°55.959 2.4 341 20 101900 44
2009-08-05 06:23:27 51°13.663 2°55.959 3.1 338 19.9 101900 45
2009-08-05 06:23:32 51°13.663 2°55.959 3.2 345 19.9 101900 45
2009-08-05 06:23:36 51°13.664 2°55.96 3.2 348 20 101900 45
2009-08-05 06:23:42 51°13.664 2°55.959 2.8 350 20 101900 45
2009-08-05 06:23:47 51°13.664 2°55.959 3.2 341 20 101900 45
2009-08-05 06:23:52 51°13.663 2°55.959 2.5 340 20 101900 45
2009-08-05 06:23:56 51°13.663 2°55.959 2.5 350 20 101900 45
2009-08-05 06:24:02 51°13.664 2°55.959 3.3 352 20 101900 45
2009-08-05 06:24:07 51°13.663 2°55.959 3.2 349 20 101900 45
2009-08-05 06:24:12 51°13.663 2°55.959 3.4 343 20 101900 45
2009-08-05 06:24:17 51°13.663 2°55.959 3.8 351 20 101900 45
2009-08-05 06:24:22 51°13.663 2°55.959 4.2 347 20 101900 45
2009-08-05 06:24:27 51°13.663 2°55.959 3.9 350 20 101900 44
2009-08-05 06:24:32 51°13.663 2°55.959 4 352 20 101900 44
2009-08-05 06:24:37 51°13.664 2°55.959 3.4 350 20.1 101900 44
2009-08-05 06:24:42 51°13.663 2°55.959 4.1 349 20.1 101900 44
2009-08-05 06:24:47 51°13.663 2°55.959 4.3 357 20.1 101900 44
2009-08-05 06:24:52 51°13.663 2°55.959 4.3 358 20.1 101900 44
2009-08-05 06:24:56 51°13.663 2°55.959 3.4 351 20.1 101900 45
2009-08-05 06:25:02 51°13.663 2°55.959 4.1 353 20.1 101900 45
2009-08-05 06:25:07 51°13.663 2°55.959 3.7 2 20.1 101900 44
2009-08-05 06:25:11 51°13.663 2°55.959 3 354 20.1 101900 44
2009-08-05 06:25:17 51°13.663 2°55.959 2.7 346 20.1 101900 44
2009-08-05 06:25:22 51°13.663 2°55.959 4.9 283 20.1 101900 44
2009-08-05 06:25:27 51°13.663 2°55.959 5 347 20.1 101900 43
2009-08-05 06:25:32 51°13.664 2°55.959 4.4 348 20.1 101900 43
2009-08-05 06:25:36 51°13.664 2°55.959 3.3 353 20.1 101900 44
2009-08-05 06:25:42 51°13.664 2°55.959 3.7 354 20.1 101900 44
2009-08-05 06:25:47 51°13.664 2°55.959 4 344 20.1 101900 44
2009-08-05 06:25:52 51°13.664 2°55.959 4.4 347 20.1 101900 44
2009-08-05 06:25:56 51°13.664 2°55.959 4.9 343 20.1 101900 43
2009-08-05 06:26:02 51°13.664 2°55.96 4 339 20.1 101900 43
2009-08-05 06:26:07 51°13.664 2°55.96 4.4 345 20.1 101900 44
2009-08-05 06:26:12 51°13.664 2°55.96 4.4 346 20.1 101900 44
2009-08-05 06:26:16 51°13.664 2°55.96 3.7 350 20.2 101900 44
2009-08-05 06:26:22 51°13.663 2°55.96 4.1 348 20.2 101900 44
2009-08-05 06:26:27 51°13.664 2°55.96 3.6 347 20.2 101900 45
2009-08-05 06:26:32 51°13.664 2°55.96 3.2 346 20.2 101900 45
2009-08-05 06:26:37 51°13.664 2°55.96 3.6 353 20.2 101900 45
2009-08-05 06:26:42 51°13.664 2°55.96 3 339 20.2 101900 45
2009-08-05 06:26:47 51°13.664 2°55.96 3.1 347 20.2 101900 44
2009-08-05 06:26:52 51°13.664 2°55.96 3 349 20.2 101900 44
2009-08-05 06:26:56 51°13.663 2°55.959 4.2 347 20.2 101900 45
2009-08-05 06:27:02 51°13.663 2°55.959 4.7 349 20.2 101900 45
2009-08-05 06:27:07 51°13.663 2°55.959 3.7 346 20.2 101900 44
2009-08-05 06:27:12 51°13.663 2°55.959 4.6 352 20.2 101900 44
2009-08-05 06:27:17 51°13.664 2°55.959 4.9 347 20.2 101900 44
2009-08-05 06:27:22 51°13.664 2°55.959 4.2 283 20.2 101900 44
2009-08-05 06:27:27 51°13.663 2°55.959 4.3 341 20.2 101900 44
2009-08-05 06:27:32 51°13.663 2°55.959 3.7 350 20.2 101900 44
2009-08-05 06:27:37 51°13.663 2°55.959 3.1 343 20.2 101900 44
2009-08-05 06:27:42 51°13.663 2°55.959 4.1 354 20.2 101900 44
2009-08-05 06:27:47 51°13.663 2°55.959 4.1 346 20.2 101900 45
2009-08-05 06:27:52 51°13.663 2°55.959 3.8 345 20.2 101900 45
2009-08-05 06:27:56 51°13.663 2°55.959 3.1 356 20.2 101900 45
2009-08-05 06:28:02 51°13.663 2°55.959 3.2 345 20.2 101900 45
2009-08-05 06:28:07 51°13.663 2°55.959 3.2 349 20.2 101900 44
2009-08-05 06:28:12 51°13.663 2°55.959 2.3 346 20.2 101900 44
2009-08-05 06:28:16 51°13.663 2°55.959 3.2 345 20.3 101900 45
2009-08-05 06:28:22 51°13.663 2°55.959 3.8 358 20.3 101900 45
2009-08-05 06:28:27 51°13.663 2°55.959 4 357 20.3 101900 44
2009-08-05 06:28:32 51°13.663 2°55.959 3.7 352 20.3 101900 44
2009-08-05 06:28:36 51°13.663 2°55.959 3.8 354 20.2 101900 44
2009-08-05 06:28:42 51°13.663 2°55.959 4.9 347 20.2 101900 44
2009-08-05 06:28:47 51°13.663 2°55.959 4.7 348 20.3 101900 44
2009-08-05 06:28:52 51°13.663 2°55.959 4 347 20.3 101900 44
2009-08-05 06:28:56 51°13.663 2°55.959 4.3 349 20.3 101900 43
2009-08-05 06:29:02 51°13.663 2°55.959 4.3 350 20.3 101900 43
2009-08-05 06:29:07 51°13.663 2°55.959 4.3 350 20.2 101900 44
2009-08-05 06:29:12 51°13.663 2°55.959 4.6 350 20.2 101900 44
2009-08-05 06:29:16 51°13.663 2°55.959 4.3 340 20.3 101900 44
2009-08-05 06:29:22 51°13.663 2°55.959 4.3 279 20.3 101900 44
2009-08-05 06:29:27 51°13.663 2°55.959 3.5 346 20.3 101900 44
2009-08-05 06:29:32 51°13.663 2°55.959 3.2 342 20.3 101900 44
2009-08-05 06:29:37 51°13.663 2°55.959 3.4 347 20.3 101900 44
2009-08-05 06:29:42 51°13.663 2°55.959 4.5 352 20.3 101900 44
2009-08-05 06:29:47 51°13.663 2°55.959 5.3 347 20.3 101900 44
2009-08-05 06:29:52 51°13.663 2°55.959 5.5 350 20.3 101900 44
2009-08-05 06:29:56 51°13.663 2°55.959 3.8 357 20.3 101900 45
2009-08-05 06:30:02 51°13.663 2°55.959 4.8 355 20.3 101900 45
2009-08-05 06:30:07 51°13.663 2°55.959 4.3 354 20.3 101900 44
2009-08-05 06:30:12 51°13.663 2°55.959 4.7 354 20.3 101900 44
2009-08-05 06:30:16 51°13.663 2°55.959 4.9 353 20.3 101900 44
2009-08-05 06:30:22 51°13.663 2°55.959 3.8 352 20.3 101900 44
2009-08-05 06:30:27 51°13.663 2°55.959 4.1 344 20.3 101900 44
2009-08-05 06:30:32 51°13.663 2°55.959 4.1 355 20.3 101900 44
2009-08-05 06:30:36 51°13.663 2°55.959 3.7 353 20.3 101900 44
2009-08-05 06:30:42 51°13.663 2°55.959 3.3 355 20.3 101900 44
2009-08-05 06:30:47 51°13.663 2°55.959 2.5 349 20.3 101900 44
2009-08-05 06:30:52 51°13.663 2°55.959 2.4 344 20.3 101900 44
2009-08-05 06:30:57 51°13.663 2°55.959 3.3 348 20.3 101900 44
2009-08-05 06:31:02 51°13.663 2°55.959 3.3 349 20.3 101900 44
2009-08-05 06:31:07 51°13.663 2°55.959 5.4 350 20.3 101900 43
2009-08-05 06:31:12 51°13.663 2°55.959 4.7 353 20.3 101900 43
2009-08-05 06:31:17 51°13.663 2°55.959 4.8 353 20.3 101900 44
2009-08-05 06:31:22 51°13.663 2°55.959 3.7 353 20.3 101900 44
2009-08-05 06:31:27 51°13.663 2°55.959 3.5 356 20.4 101900 45
2009-08-05 06:31:32 51°13.663 2°55.959 3.9 356 20.4 101900 45
2009-08-05 06:31:37 51°13.663 2°55.959 4.9 353 20.3 101900 44
2009-08-05 06:31:42 51°13.663 2°55.959 3.3 356 20.3 101900 44
2009-08-05 06:31:47 51°13.663 2°55.959 3.6 337 20.3 101900 44
2009-08-05 06:31:51 51°13.663 2°55.959 4.8 347 20.3 101900 44
2009-08-05 06:31:57 51°13.663 2°55.959 3.9 347 20.3 101900 44
2009-08-05 06:32:02 51°13.663 2°55.959 3.4 340 20.3 101900 44
2009-08-05 06:32:07 51°13.663 2°55.959 3.3 350 20.3 101900 44
2009-08-05 06:32:12 51°13.663 2°55.959 3.3 338 20.3 101900 44
2009-08-05 06:32:16 51°13.663 2°55.959 3.4 345 20.3 101900 44
2009-08-05 06:32:22 51°13.663 2°55.959 4.4 346 20.3 101900 44
2009-08-05 06:32:27 51°13.663 2°55.959 4.8 349 20.3 101900 44
2009-08-05 06:32:32 51°13.663 2°55.959 3.5 352 20.3 101900 44
2009-08-05 06:32:36 51°13.663 2°55.959 3.5 352 20.3 101900 44
2009-08-05 06:32:42 51°13.663 2°55.959 3.5 355 20.3 101900 44
2009-08-05 06:32:47 51°13.663 2°55.959 3.9 350 20.3 101900 43
2009-08-05 06:32:52 51°13.663 2°55.959 4.5 360 20.3 101900 43
2009-08-05 06:32:56 51°13.663 2°55.959 3.3 359 20.3 101900 44
2009-08-05 06:33:02 51°13.663 2°55.959 3.4 350 20.3 101900 44
2009-08-05 06:33:07 51°13.663 2°55.959 3.7 348 20.3 101900 43
2009-08-05 06:33:12 51°13.663 2°55.959 2.8 349 20.3 101900 43
2009-08-05 06:33:16 51°13.663 2°55.959 3.8 353 20.3 101900 44
2009-08-05 06:33:22 51°13.663 2°55.959 3.2 359 20.3 101900 44
2009-08-05 06:33:27 51°13.663 2°55.959 3.2 353 20.3 101900 44
2009-08-05 06:33:32 51°13.663 2°55.959 3 344 20.3 101900 44
2009-08-05 06:33:36 51°13.663 2°55.959 2.5 337 20.3 101900 45
2009-08-05 06:33:42 51°13.663 2°55.959 3.2 336 20.3 101900 45
2009-08-05 06:33:47 51°13.663 2°55.959 3 346 20.3 101900 44
2009-08-05 06:33:52 51°13.663 2°55.959 3.1 357 20.3 101900 44
2009-08-05 06:33:57 51°13.663 2°55.959 2.7 352 20.3 101900 44
2009-08-05 06:34:02 51°13.663 2°55.959 3.7 338 20.3 101900 44
2009-08-05 06:34:07 51°13.663 2°55.958 3.5 349 20.3 101900 44
2009-08-05 06:34:12 51°13.663 2°55.958 3.8 350 20.3 101900 44
2009-08-05 06:34:16 51°13.663 2°55.958 3.8 344 20.3 101890 44
2009-08-05 06:34:22 51°13.663 2°55.958 3.5 344 20.3 101890 44
2009-08-05 06:34:27 51°13.663 2°55.958 3.9 349 20.3 101890 44
2009-08-05 06:34:32 51°13.663 2°55.958 2.7 349 20.3 101890 44
2009-08-05 06:34:36 51°13.663 2°55.959 3.8 355 20.4 101890 45
2009-08-05 06:34:42 51°13.663 2°55.959 3.2 347 20.4 101890 45
2009-08-05 06:34:47 51°13.663 2°55.959 3.3 352 20.4 101900 45
2009-08-05 06:34:52 51°13.663 2°55.958 3.5 347 20.4 101900 45
2009-08-05 06:34:56 51°13.663 2°55.958 3.8 349 20.4 101900 45
2009-08-05 06:35:02 51°13.663 2°55.958 3 355 20.4 101900 45
2009-08-05 06:35:07 51°13.663 2°55.958 3.5 359 20.4 101900 45
2009-08-05 06:35:12 51°13.663 2°55.958 2.9 357 20.4 101900 45
2009-08-05 06:35:16 51°13.663 2°55.958 2.9 338 20.4 101900 44
2009-08-05 06:35:22 51°13.663 2°55.958 3 280 20.4 101900 44
2009-08-05 06:35:27 51°13.663 2°55.958 3.1 339 20.4 101890 43
2009-08-05 06:35:32 51°13.663 2°55.958 2.4 352 20.4 101890 43
2009-08-05 06:35:37 51°13.663 2°55.958 2.2 345 20.4 101890 44
2009-08-05 06:35:42 51°13.663 2°55.958 1.9 348 20.4 101890 44
2009-08-05 06:35:47 51°13.663 2°55.958 3.1 356 20.4 101890 44
2009-08-05 06:35:52 51°13.663 2°55.958 2.8 357 20.4 101890 44
2009-08-05 06:35:56 51°13.663 2°55.959 2.7 353 20.4 101890 44
2009-08-05 06:36:02 51°13.663 2°55.958 2.9 347 20.4 101890 44
2009-08-05 06:36:07 51°13.663 2°55.958 3.5 348 20.4 101890 44
2009-08-05 06:36:11 51°13.663 2°55.958 3.3 349 20.4 101890 44
2009-08-05 06:36:17 51°13.663 2°55.958 2.6 342 20.4 101890 44
2009-08-05 06:36:22 51°13.663 2°55.958 2.7 329 20.4 101890 44
2009-08-05 06:36:27 51°13.663 2°55.959 3.3 335 20.4 101890 45
2009-08-05 06:36:32 51°13.663 2°55.959 3.1 340 20.4 101890 45
2009-08-05 06:36:37 51°13.663 2°55.959 3 338 20.4 101890 44
2009-08-05 06:36:42 51°13.663 2°55.959 3.9 302 20.4 101890 44
2009-08-05 06:36:47 51°13.663 2°55.959 2.8 337 20.4 101890 45
2009-08-05 06:36:52 51°13.663 2°55.959 4.1 340 20.4 101890 45
2009-08-05 06:36:56 51°13.663 2°55.959 4.7 339 20.5 101890 45
2009-08-05 06:37:02 51°13.663 2°55.959 2.5 340 20.5 101890 45
2009-08-05 06:37:07 51°13.663 2°55.959 2.3 345 20.5 101890 45
2009-08-05 06:37:12 51°13.663 2°55.959 3.7 343 20.5 101890 45
2009-08-05 06:37:16 51°13.663 2°55.959 4.4 346 20.5 101890 44
2009-08-05 06:37:22 51°13.662 2°55.959 4.4 350 20.5 101890 44
2009-08-05 06:37:27 51°13.662 2°55.959 4 347 20.5 101890 45
2009-08-05 06:37:32 51°13.662 2°55.959 3.6 338 20.5 101890 45
2009-08-05 06:37:36 51°13.662 2°55.959 2.9 341 20.4 101890 44
2009-08-05 06:37:42 51°13.662 2°55.959 3.6 337 20.4 101890 44
2009-08-05 06:37:47 51°13.662 2°55.959 3.6 335 20.4 101890 45
2009-08-05 06:37:52 51°13.662 2°55.959 3.8 338 20.4 101890 45
2009-08-05 06:37:56 51°13.662 2°55.959 4.5 340 20.4 101890 45
2009-08-05 06:38:02 51°13.662 2°55.959 3.5 343 20.4 101890 45
2009-08-05 06:38:07 51°13.662 2°55.959 3.4 349 20.5 101890 45
2009-08-05 06:38:12 51°13.662 2°55.959 3.2 342 20.5 101890 45
2009-08-05 06:38:16 51°13.662 2°55.959 3.7 346 20.5 101890 45
2009-08-05 06:38:22 51°13.662 2°55.959 3.9 346 20.5 101890 45
2009-08-05 06:38:27 51°13.662 2°55.959 4.3 345 20.5 101890 44
2009-08-05 06:38:32 51°13.663 2°55.959 3.5 351 20.5 101890 44
2009-08-05 06:38:36 51°13.663 2°55.959 4.6 341 20.5 101890 44
2009-08-05 06:38:42 51°13.663 2°55.959 4.3 350 20.5 101890 44
2009-08-05 06:38:47 51°13.663 2°55.959 4.3 337 20.5 101890 44
2009-08-05 06:38:52 51°13.663 2°55.959 2.6 340 20.5 101890 44
2009-08-05 06:38:57 51°13.663 2°55.959 4.6 349 20.5 101890 45
2009-08-05 06:39:02 51°13.663 2°55.959 4.4 350 20.5 101890 45
2009-08-05 06:39:07 51°13.663 2°55.959 4 344 20.5 101890 44
2009-08-05 06:39:12 51°13.663 2°55.959 3.6 345 20.5 101890 44
2009-08-05 06:39:16 51°13.663 2°55.959 3.6 340 20.5 101890 44
2009-08-05 06:39:22 51°13.663 2°55.959 5.3 284 20.5 101890 44
2009-08-05 06:39:27 51°13.663 2°55.959 5.9 345 20.5 101890 44
2009-08-05 06:39:32 51°13.663 2°55.959 4.6 347 20.5 101890 44
2009-08-05 06:39:37 51°13.663 2°55.959 4.7 345 20.5 101890 44
2009-08-05 06:39:42 51°13.663 2°55.959 4.2 346 20.5 101890 44
2009-08-05 06:39:47 51°13.663 2°55.959 4.4 349 20.5 101890 44
2009-08-05 06:39:52 51°13.664 2°55.959 4.4 355 20.5 101890 44
2009-08-05 06:39:56 51°13.664 2°55.959 4.6 345 20.5 101890 44
2009-08-05 06:40:02 51°13.664 2°55.959 3.1 339 20.5 101890 44
2009-08-05 06:40:07 51°13.664 2°55.959 3.7 340 20.5 101890 43
2009-08-05 06:40:12 51°13.664 2°55.959 4.2 340 20.5 101890 43
2009-08-05 06:40:16 51°13.664 2°55.959 3.4 341 20.5 101890 44
2009-08-05 06:40:22 51°13.664 2°55.959 2.7 349 20.5 101890 44
2009-08-05 06:40:27 51°13.664 2°55.959 2.4 348 20.5 101890 44
2009-08-05 06:40:32 51°13.663 2°55.959 3.2 352 20.5 101890 44
2009-08-05 06:40:37 51°13.664 2°55.959 3.6 347 20.5 101890 45
2009-08-05 06:40:46 51°13.664 2°55.959 3.6 347 20.5 101890 45
2009-08-05 06:40:50 51°13.664 2°55.959 3.6 347 20.5 101890 45
2009-08-05 06:40:56 51°13.663 2°55.959 3.6 347 20.5 101890 45
2009-08-05 06:41:00 51°13.663 2°55.959 3.6 347 20.5 101890 45
2009-08-05 06:41:05 51°13.663 2°55.959 3.6 347 20.5 101890 45
2009-08-05 06:41:10 51°13.663 2°55.959 3.6 347 -999 -999 -999
2009-08-05 06:41:15 51°13.663 2°55.959 -999 -999 -999 -999 -999
2009-08-05 06:41:20 51°13.663 2°55.959 -999 -999 -999 -999 -999
2009-08-05 06:41:25 51°13.663 2°55.959 3.4 347 -999 -999 -999
2009-08-05 06:41:30 51°13.663 2°55.959 3.5 345 -999 -999 -999
2009-08-05 06:41:35 51°13.663 2°55.959 3.9 345 -999 -999 -999
2009-08-05 06:41:39 51°13.663 2°55.959 3.7 340 -999 -999 -999
2009-08-05 06:41:44 51°13.663 2°55.959 3.9 355 -999 -999 -999
2009-08-05 06:41:49 51°13.663 2°55.959 3.1 352 20.4 -999 39
2009-08-05 06:41:54 51°13.664 2°55.959 2.7 338 20.4 -999 39
2009-08-05 06:41:59 51°13.664 2°55.959 3.1 341 20.5 -999 44
2009-08-05 06:42:04 51°13.664 2°55.959 3.1 351 20.5 -999 44
2009-08-05 06:42:09 51°13.665 2°55.959 2.9 347 20.5 101890 44
2009-08-05 06:42:14 51°13.665 2°55.959 2.7 350 20.5 101890 44
2009-08-05 06:42:19 51°13.665 2°55.959 2.7 353 20.5 101890 44
2009-08-05 06:42:23 51°13.664 2°55.959 2.6 356 20.5 101890 44
2009-08-05 06:42:28 51°13.663 2°55.959 3.1 348 20.5 101890 46
2009-08-05 06:42:33 51°13.663 2°55.959 3.5 337 20.5 101890 46
2009-08-05 06:42:38 51°13.663 2°55.959 3.5 340 20.5 101890 45
2009-08-05 06:42:43 51°13.662 2°55.959 3.6 356 20.5 101890 45
2009-08-05 06:42:48 51°13.662 2°55.96 3.2 350 20.5 101890 44
2009-08-05 06:42:52 51°13.662 2°55.96 2.6 342 20.5 101890 44
2009-08-05 06:42:57 51°13.663 2°55.959 3 345 20.5 101890 45
2009-08-05 06:43:02 51°13.663 2°55.959 2.4 342 20.5 101890 45
2009-08-05 06:43:07 51°13.663 2°55.959 2.4 342 20.5 101890 44
2009-08-05 06:43:12 51°13.663 2°55.959 3.1 349 20.5 101890 44
2009-08-05 06:43:17 51°13.664 2°55.959 3.5 346 20.5 101890 45
2009-08-05 06:43:22 51°13.664 2°55.959 3.2 356 20.5 101890 45
2009-08-05 06:43:27 51°13.664 2°55.959 3.5 348 20.5 101890 45
2009-08-05 06:43:32 51°13.663 2°55.959 3 349 20.5 101890 45
2009-08-05 06:43:36 51°13.663 2°55.959 3.1 357 20.5 101890 44
2009-08-05 06:43:42 51°13.663 2°55.959 2.8 348 20.5 101890 44
2009-08-05 06:43:47 51°13.663 2°55.959 3.5 345 20.5 101890 45
2009-08-05 06:43:52 51°13.663 2°55.959 2.6 343 20.5 101890 45
2009-08-05 06:43:56 51°13.663 2°55.959 2.9 340 20.5 101890 44
2009-08-05 06:44:02 51°13.663 2°55.959 3.4 340 20.5 101890 44
2009-08-05 06:44:07 51°13.664 2°55.959 3 339 20.5 101890 44
2009-08-05 06:44:12 51°13.663 2°55.959 3.3 339 20.5 101890 44
2009-08-05 06:44:16 51°13.663 2°55.959 4 337 20.6 101890 44
2009-08-05 06:44:22 51°13.663 2°55.959 2.8 339 20.6 101890 44
2009-08-05 06:44:27 51°13.663 2°55.959 2.9 342 20.6 101890 45
2009-08-05 06:44:32 51°13.663 2°55.959 3.8 345 20.6 101890 45
2009-08-05 06:44:37 51°13.663 2°55.959 2.9 345 20.6 101890 45
2009-08-05 06:44:42 51°13.663 2°55.959 4.2 341 20.6 101890 45
2009-08-05 06:44:47 51°13.663 2°55.959 3.9 345 20.6 101890 45
2009-08-05 06:44:52 51°13.663 2°55.959 3.6 339 20.6 101890 45
2009-08-05 06:44:56 51°13.663 2°55.959 4.4 341 20.6 101890 45
2009-08-05 06:45:02 51°13.663 2°55.959 3.7 339 20.6 101890 45
2009-08-05 06:45:07 51°13.663 2°55.959 4.3 338 20.6 101890 45
2009-08-05 06:45:12 51°13.663 2°55.959 4.9 341 20.6 101890 45
2009-08-05 06:45:17 51°13.663 2°55.959 3.9 340 20.7 101890 45
2009-08-05 06:45:22 51°13.663 2°55.959 4 342 20.7 101890 45
2009-08-05 06:45:27 51°13.663 2°55.959 3.8 335 20.7 101890 44
2009-08-05 06:45:32 51°13.663 2°55.959 4.1 345 20.7 101890 44
2009-08-05 06:45:36 51°13.663 2°55.959 4.4 345 20.7 101890 43
2009-08-05 06:45:42 51°13.663 2°55.959 4.3 348 20.7 101890 43
2009-08-05 06:45:47 51°13.663 2°55.959 3.6 348 20.7 101890 44
2009-08-05 06:45:52 51°13.663 2°55.959 4.1 346 20.7 101890 44
2009-08-05 06:45:56 51°13.663 2°55.959 4.9 342 20.7 101890 44
2009-08-05 06:46:02 51°13.663 2°55.959 4.2 337 20.7 101890 44
2009-08-05 06:46:07 51°13.663 2°55.959 4.3 342 20.7 101890 44
2009-08-05 06:46:12 51°13.663 2°55.959 3.9 353 20.7 101890 44
2009-08-05 06:46:16 51°13.663 2°55.959 5.1 351 20.7 101890 42
2009-08-05 06:46:22 51°13.663 2°55.959 3.7 359 20.7 101890 42
2009-08-05 06:46:27 51°13.663 2°55.959 3.6 358 20.7 101890 43
2009-08-05 06:46:32 51°13.663 2°55.959 3.9 348 20.7 101890 43
2009-08-05 06:46:36 51°13.663 2°55.959 3.7 347 20.7 101890 44
2009-08-05 06:46:42 51°13.663 2°55.959 3.4 341 20.7 101890 44
2009-08-05 06:46:47 51°13.663 2°55.959 2.9 346 20.7 101890 44
2009-08-05 06:46:52 51°13.663 2°55.959 3.8 352 20.7 101890 44
2009-08-05 06:46:56 51°13.663 2°55.959 3.7 349 20.7 101890 44
2009-08-05 06:47:02 51°13.663 2°55.959 3.8 348 20.7 101890 44
2009-08-05 06:47:07 51°13.663 2°55.959 2.8 354 20.7 101890 44
2009-08-05 06:47:12 51°13.663 2°55.959 3.1 344 20.7 101890 44
2009-08-05 06:47:17 51°13.663 2°55.959 3.2 337 20.7 101890 43
2009-08-05 06:47:22 51°13.663 2°55.959 3.4 345 20.7 101890 43
2009-08-05 06:47:27 51°13.663 2°55.959 3 346 20.7 101890 43
2009-08-05 06:47:32 51°13.663 2°55.959 3.3 353 20.7 101890 43
2009-08-05 06:47:37 51°13.663 2°55.959 3.6 344 20.7 101890 44
2009-08-05 06:47:42 51°13.663 2°55.959 4.3 342 20.7 101890 44
2009-08-05 06:47:47 51°13.663 2°55.959 4.1 342 20.8 101890 44
2009-08-05 06:47:51 51°13.663 2°55.959 2.9 345 20.8 101890 44
2009-08-05 06:47:56 51°13.663 2°55.959 3.8 340 20.8 101900 45
2009-08-05 06:48:02 51°13.663 2°55.959 3.9 342 20.8 101900 45
2009-08-05 06:48:07 51°13.663 2°55.959 3.6 340 20.8 101890 44
2009-08-05 06:48:12 51°13.663 2°55.959 2.7 346 20.8 101890 44
2009-08-05 06:48:16 51°13.663 2°55.959 2.8 348 20.8 101890 44
2009-08-05 06:48:22 51°13.663 2°55.959 2.6 349 20.8 101890 44
2009-08-05 06:48:27 51°13.663 2°55.959 2.8 347 20.8 101890 44
2009-08-05 06:48:32 51°13.663 2°55.959 2.9 349 20.8 101890 44
2009-08-05 06:48:36 51°13.663 2°55.959 2.4 340 20.8 101900 43
2009-08-05 06:48:42 51°13.663 2°55.959 3.3 336 20.8 101900 43
2009-08-05 06:48:47 51°13.663 2°55.959 2.8 341 20.8 101890 44
2009-08-05 06:48:52 51°13.663 2°55.959 3 331 20.8 101890 44
2009-08-05 06:48:56 51°13.663 2°55.959 3.6 331 20.8 101890 43
2009-08-05 06:49:02 51°13.663 2°55.959 3.6 342 20.8 101890 43
2009-08-05 06:49:07 51°13.663 2°55.959 3.7 348 20.9 101890 45
2009-08-05 06:49:12 51°13.663 2°55.959 3.4 332 20.9 101890 45
2009-08-05 06:49:17 51°13.663 2°55.959 3.2 342 20.9 101890 44
2009-08-05 06:49:22 51°13.663 2°55.959 3.7 343 20.9 101890 44
2009-08-05 06:49:27 51°13.663 2°55.959 4.8 340 20.9 101890 44
2009-08-05 06:49:32 51°13.663 2°55.959 4.9 341 20.9 101890 44
2009-08-05 06:49:36 51°13.663 2°55.959 4 344 20.9 101890 44
2009-08-05 06:49:42 51°13.663 2°55.959 3.1 348 20.9 101890 44
2009-08-05 06:49:47 51°13.663 2°55.959 2.9 345 20.9 101890 45
2009-08-05 06:49:52 51°13.663 2°55.959 3.6 342 20.9 101890 45
2009-08-05 06:49:57 51°13.663 2°55.959 3.4 335 20.9 101890 44
2009-08-05 06:50:02 51°13.663 2°55.959 3.7 338 20.9 101890 44
2009-08-05 06:50:07 51°13.663 2°55.959 3.8 339 20.9 101890 44
2009-08-05 06:50:12 51°13.663 2°55.959 4.9 346 20.9 101890 44
2009-08-05 06:50:16 51°13.663 2°55.959 4 337 20.9 101890 44
2009-08-05 06:50:22 51°13.663 2°55.959 4.2 337 20.9 101890 44
2009-08-05 06:50:27 51°13.663 2°55.96 4.2 344 20.9 101890 44
2009-08-05 06:50:32 51°13.663 2°55.96 3.8 330 20.9 101890 44
2009-08-05 06:50:37 51°13.663 2°55.96 3.8 338 20.9 101890 44
2009-08-05 06:50:42 51°13.663 2°55.959 4.5 342 20.9 101890 44
2009-08-05 06:50:47 51°13.663 2°55.959 4.2 348 20.9 101890 44
2009-08-05 06:50:52 51°13.662 2°55.959 4.1 352 20.9 101890 44
2009-08-05 06:50:56 51°13.662 2°55.959 3.8 352 20.9 101890 44
2009-08-05 06:51:02 51°13.662 2°55.959 2.6 349 20.9 101890 44
2009-08-05 06:51:07 51°13.662 2°55.96 2.7 355 20.9 101890 43
2009-08-05 06:51:12 51°13.662 2°55.96 5.6 345 20.9 101890 43
2009-08-05 06:51:16 51°13.662 2°55.96 4.1 347 20.9 101890 44
2009-08-05 06:51:22 51°13.663 2°55.96 3.2 346 20.9 101890 44
2009-08-05 06:51:27 51°13.663 2°55.96 3.5 349 21 101890 43
2009-08-05 06:51:32 51°13.663 2°55.96 3.5 345 21 101890 43
2009-08-05 06:51:36 51°13.663 2°55.96 3.6 344 21 101890 43
2009-08-05 06:51:42 51°13.663 2°55.96 5.3 350 21 101890 43
2009-08-05 06:51:47 51°13.663 2°55.96 4.2 351 21 101890 43
2009-08-05 06:51:52 51°13.663 2°55.96 3.6 359 21 101890 43
2009-08-05 06:51:56 51°13.663 2°55.96 4.4 351 21 101890 44
2009-08-05 06:52:02 51°13.663 2°55.96 4.3 348 21 101890 44
2009-08-05 06:52:07 51°13.663 2°55.96 3.8 351 20.9 101890 43
2009-08-05 06:52:12 51°13.663 2°55.96 3.7 354 20.9 101890 43
2009-08-05 06:52:16 51°13.663 2°55.96 4.1 354 20.9 101900 43
2009-08-05 06:52:22 51°13.663 2°55.96 3.8 360 20.9 101900 43
2009-08-05 06:52:27 51°13.663 2°55.96 4.7 352 20.9 101890 44
2009-08-05 06:52:32 51°13.663 2°55.96 3 337 20.9 101890 44
2009-08-05 06:52:37 51°13.663 2°55.96 3.9 330 20.9 101890 43
2009-08-05 06:52:42 51°13.663 2°55.96 2.3 337 20.9 101890 43
2009-08-05 06:52:47 51°13.663 2°55.96 3.9 337 21 101890 44
2009-08-05 06:52:52 51°13.663 2°55.96 4 342 21 101890 44
2009-08-05 06:52:56 51°13.663 2°55.96 3.3 342 21 101890 43
2009-08-05 06:53:02 51°13.663 2°55.96 3.2 345 21 101890 43
2009-08-05 06:53:07 51°13.663 2°55.96 4.2 326 21 101890 43
2009-08-05 06:53:12 51°13.663 2°55.96 4.4 335 21 101890 43
2009-08-05 06:53:16 51°13.663 2°55.96 4.4 336 21 101890 44
2009-08-05 06:53:22 51°13.663 2°55.96 2.8 331 21 101890 44
2009-08-05 06:53:27 51°13.663 2°55.96 4.3 334 21 101890 43
2009-08-05 06:53:32 51°13.663 2°55.96 4.3 342 21 101890 43
2009-08-05 06:53:36 51°13.663 2°55.96 3.9 342 21 101890 44
2009-08-05 06:53:42 51°13.663 2°55.959 4.7 338 21 101890 44
2009-08-05 06:53:47 51°13.663 2°55.959 3.1 345 21 101890 44
2009-08-05 06:53:52 51°13.663 2°55.959 3.4 341 21 101890 44
2009-08-05 06:53:56 51°13.663 2°55.959 2.6 348 21.1 101890 43
2009-08-05 06:54:02 51°13.664 2°55.959 3.2 338 21.1 101890 43
2009-08-05 06:54:07 51°13.664 2°55.959 2.8 335 21.1 101890 44
2009-08-05 06:54:12 51°13.664 2°55.959 3.6 341 21.1 101890 44
2009-08-05 06:54:16 51°13.664 2°55.959 4 351 21.1 101890 43
2009-08-05 06:54:22 51°13.663 2°55.959 3.1 340 21.1 101890 43
2009-08-05 06:54:27 51°13.663 2°55.959 4.1 340 21.1 101890 43
2009-08-05 06:54:32 51°13.663 2°55.959 3.7 336 21.1 101890 43
2009-08-05 06:54:36 51°13.663 2°55.959 3.8 341 21.1 101890 43
2009-08-05 06:54:42 51°13.663 2°55.959 3.8 344 21.1 101890 43
2009-08-05 06:54:47 51°13.663 2°55.959 4.1 341 21.1 101890 44
2009-08-05 06:54:52 51°13.663 2°55.959 3.5 346 21.1 101890 44
2009-08-05 06:54:57 51°13.663 2°55.959 2.4 349 21.2 101890 44
2009-08-05 06:55:02 51°13.663 2°55.959 2.7 355 21.2 101890 44
2009-08-05 06:55:07 51°13.663 2°55.959 2.2 340 21.2 101890 44
2009-08-05 06:55:12 51°13.663 2°55.959 2.8 343 21.2 101890 44
2009-08-05 06:55:16 51°13.663 2°55.958 3.6 341 21.2 101890 43
2009-08-05 06:55:22 51°13.663 2°55.959 2.8 344 21.2 101890 43
2009-08-05 06:55:27 51°13.663 2°55.959 3.7 334 21.2 101890 44
2009-08-05 06:55:32 51°13.663 2°55.959 3.8 343 21.2 101890 44
2009-08-05 06:55:36 51°13.663 2°55.959 3.1 336 21.2 101890 44
2009-08-05 06:55:42 51°13.663 2°55.959 4 335 21.2 101890 44
2009-08-05 06:55:47 51°13.663 2°55.959 3.8 341 21.2 101890 43
2009-08-05 06:55:52 51°13.663 2°55.959 4.2 345 21.2 101890 43
2009-08-05 06:55:56 51°13.663 2°55.959 4.1 344 21.2 101890 43
2009-08-05 06:56:02 51°13.663 2°55.959 3.2 349 21.2 101890 43
2009-08-05 06:56:07 51°13.663 2°55.959 3.5 339 21.3 101890 44
2009-08-05 06:56:12 51°13.663 2°55.959 4.3 339 21.3 101890 44
2009-08-05 06:56:16 51°13.663 2°55.959 4.3 337 21.3 101890 44
2009-08-05 06:56:22 51°13.663 2°55.959 2.9 338 21.3 101890 44
2009-08-05 06:56:27 51°13.663 2°55.959 5.1 345 21.3 101890 44
2009-08-05 06:56:32 51°13.663 2°55.959 4.8 337 21.3 101890 44
2009-08-05 06:56:36 51°13.663 2°55.959 3.3 339 21.3 101890 44
2009-08-05 06:56:42 51°13.663 2°55.959 2.7 345 21.3 101890 44
2009-08-05 06:56:47 51°13.663 2°55.959 3.4 349 21.3 101890 43
2009-08-05 06:56:52 51°13.663 2°55.959 3.9 337 21.3 101890 43
2009-08-05 06:56:56 51°13.663 2°55.959 3.8 340 21.3 101890 43
2009-08-05 06:57:02 51°13.663 2°55.959 2.6 340 21.3 101890 43
2009-08-05 06:57:07 51°13.663 2°55.959 2.8 333 21.3 101890 43
2009-08-05 06:57:12 51°13.663 2°55.959 3.3 349 21.3 101890 43
2009-08-05 06:57:16 51°13.663 2°55.959 4.4 346 21.3 101890 43
2009-08-05 06:57:22 51°13.663 2°55.959 3.7 343 21.3 101890 43
2009-08-05 06:57:27 51°13.663 2°55.959 3.1 357 21.3 101890 44
2009-08-05 06:57:32 51°13.663 2°55.959 4.1 353 21.3 101890 44
2009-08-05 06:57:36 51°13.663 2°55.959 3.4 338 21.4 101890 44
2009-08-05 06:57:42 51°13.663 2°55.959 3.4 351 21.4 101890 44
2009-08-05 06:57:47 51°13.663 2°55.959 3.9 343 21.4 101890 43
2009-08-05 06:57:52 51°13.663 2°55.959 4.3 342 21.4 101890 43
2009-08-05 06:57:56 51°13.663 2°55.959 3.7 337 21.4 101890 43
2009-08-05 06:58:02 51°13.663 2°55.959 2.3 342 21.4 101890 43
2009-08-05 06:58:07 51°13.663 2°55.959 3 349 21.4 101890 44
2009-08-05 06:58:12 51°13.663 2°55.959 3.7 341 21.4 101890 44
2009-08-05 06:58:16 51°13.663 2°55.959 3.6 352 21.4 101900 44
2009-08-05 06:58:22 51°13.663 2°55.959 4.2 350 21.4 101900 44
2009-08-05 06:58:27 51°13.662 2°55.959 5.7 347 21.4 101890 43
2009-08-05 06:58:32 51°13.662 2°55.959 4.9 356 21.4 101890 43
2009-08-05 06:58:36 51°13.662 2°55.959 3.7 353 21.4 101890 43
2009-08-05 06:58:42 51°13.662 2°55.959 3.7 11 21.4 101890 43
2009-08-05 06:58:47 51°13.662 2°55.959 3.7 354 21.4 101900 43
2009-08-05 06:58:52 51°13.662 2°55.959 3.4 349 21.4 101900 43
2009-08-05 06:58:56 51°13.662 2°55.959 3.2 352 21.4 101900 42
2009-08-05 06:59:02 51°13.662 2°55.959 2.9 344 21.4 101900 42
2009-08-05 06:59:07 51°13.662 2°55.959 3.7 354 21.4 101890 43
2009-08-05 06:59:12 51°13.662 2°55.959 3.4 359 21.4 101890 43
2009-08-05 06:59:16 51°13.663 2°55.959 2.8 353 21.4 101890 43
2009-08-05 06:59:22 51°13.663 2°55.959 2.7 350 21.4 101890 43
2009-08-05 06:59:27 51°13.663 2°55.959 3.4 334 21.4 101890 44
2009-08-05 06:59:32 51°13.663 2°55.959 2.4 338 21.4 101890 44
2009-08-05 06:59:37 51°13.663 2°55.959 2.6 344 21.4 101890 43
2009-08-05 06:59:42 51°13.663 2°55.959 3.2 338 21.4 101890 43
2009-08-05 06:59:47 51°13.663 2°55.959 2.8 344 21.4 101890 43
2009-08-05 06:59:52 51°13.663 2°55.959 3.4 337 21.4 101890 43
2009-08-05 06:59:56 51°13.663 2°55.959 3.4 347 21.4 101890 43
2009-08-05 07:00:02 51°13.663 2°55.959 3.2 354 21.4 101890 43
2009-08-05 07:00:07 51°13.663 2°55.959 2.5 338 21.4 101890 43
2009-08-05 07:00:12 51°13.663 2°55.959 3.6 346 21.4 101890 43
2009-08-05 07:00:16 51°13.663 2°55.959 4.1 344 21.4 101890 44
2009-08-05 07:00:22 51°13.663 2°55.959 3.8 341 21.4 101890 44
2009-08-05 07:00:27 51°13.663 2°55.959 3.8 346 21.4 101890 43
2009-08-05 07:00:32 51°13.663 2°55.959 4.5 345 21.4 101890 43
2009-08-05 07:00:37 51°13.663 2°55.959 3.8 334 21.4 101900 44
2009-08-05 07:00:42 51°13.663 2°55.959 4.4 349 21.4 101900 44
2009-08-05 07:00:46 51°13.663 2°55.959 4.1 342 21.5 101890 43
2009-08-05 07:00:52 51°13.663 2°55.959 3.7 337 21.5 101890 43
2009-08-05 07:00:57 51°13.663 2°55.959 4.6 349 21.5 101890 44
2009-08-05 07:01:02 51°13.663 2°55.959 3.1 340 21.5 101890 44
2009-08-05 07:01:07 51°13.663 2°55.959 2.8 340 21.5 101890 43
2009-08-05 07:01:12 51°13.664 2°55.959 3.6 346 21.5 101890 43
2009-08-05 07:01:16 51°13.664 2°55.959 3.3 343 21.5 101890 43
2009-08-05 07:01:22 51°13.664 2°55.959 4 343 21.5 101890 43
2009-08-05 07:01:27 51°13.664 2°55.959 3.5 340 21.5 101890 44
2009-08-05 07:01:32 51°13.664 2°55.959 3.3 339 21.5 101890 44
2009-08-05 07:01:36 51°13.664 2°55.959 4.2 345 21.5 101890 43
2009-08-05 07:01:42 51°13.663 2°55.959 4.3 348 21.5 101890 43
2009-08-05 07:01:47 51°13.663 2°55.959 4.6 353 21.5 101900 44
2009-08-05 07:01:52 51°13.663 2°55.959 4.6 355 21.5 101900 44
2009-08-05 07:01:56 51°13.662 2°55.959 4 354 21.5 101900 44
2009-08-05 07:02:02 51°13.662 2°55.958 3.2 342 21.5 101900 44
2009-08-05 07:02:07 51°13.662 2°55.959 3.3 345 21.5 101890 43
2009-08-05 07:02:12 51°13.662 2°55.959 3.3 346 21.5 101890 43
2009-08-05 07:02:16 51°13.662 2°55.959 5.4 346 21.5 101890 43
2009-08-05 07:02:22 51°13.663 2°55.959 4.6 345 21.5 101890 43
2009-08-05 07:02:27 51°13.663 2°55.959 5.6 349 21.5 101890 44
2009-08-05 07:02:32 51°13.663 2°55.959 5 351 21.5 101890 44
2009-08-05 07:02:36 51°13.663 2°55.959 4.6 356 21.5 101900 43
2009-08-05 07:02:42 51°13.664 2°55.959 5.4 351 21.5 101900 43
2009-08-05 07:02:47 51°13.664 2°55.959 4.3 346 21.5 101900 43
2009-08-05 07:02:52 51°13.664 2°55.959 3.9 353 21.5 101900 43
2009-08-05 07:02:56 51°13.664 2°55.959 3.1 351 21.5 101890 43
2009-08-05 07:03:02 51°13.663 2°55.959 3 343 21.5 101890 43
2009-08-05 07:03:07 51°13.663 2°55.96 3.4 352 21.5 101900 42
2009-08-05 07:03:12 51°13.663 2°55.96 3.7 347 21.5 101900 42
2009-08-05 07:03:16 51°13.663 2°55.96 3.1 350 21.5 101890 44
2009-08-05 07:03:22 51°13.663 2°55.959 3 342 21.5 101890 44
2009-08-05 07:03:27 51°13.663 2°55.959 3.6 330 21.5 101890 44
2009-08-05 07:03:32 51°13.663 2°55.959 2.5 348 21.5 101890 44
2009-08-05 07:03:36 51°13.663 2°55.959 3.8 337 21.5 101900 44
2009-08-05 07:03:42 51°13.663 2°55.959 3.5 342 21.5 101900 44
2009-08-05 07:03:47 51°13.663 2°55.959 2.5 342 21.5 101890 44
2009-08-05 07:03:52 51°13.663 2°55.96 4.2 341 21.5 101890 44
2009-08-05 07:03:56 51°13.663 2°55.96 4.3 343 21.5 101900 43
2009-08-05 07:04:02 51°13.663 2°55.96 4.7 332 21.5 101900 43
2009-08-05 07:04:07 51°13.663 2°55.96 4.9 332 21.5 101900 44
2009-08-05 07:04:12 51°13.663 2°55.96 4.3 345 21.5 101900 44
2009-08-05 07:04:16 51°13.663 2°55.96 4 342 21.5 101890 44
2009-08-05 07:04:22 51°13.663 2°55.96 5.2 336 21.5 101890 44
2009-08-05 07:04:27 51°13.663 2°55.96 4.3 341 21.5 101890 44
2009-08-05 07:04:32 51°13.663 2°55.96 4.2 339 21.5 101890 44
2009-08-05 07:04:36 51°13.663 2°55.96 3.7 345 21.5 101890 44
2009-08-05 07:04:42 51°13.663 2°55.96 2.7 344 21.5 101890 44
2009-08-05 07:04:47 51°13.663 2°55.96 4.5 343 21.5 101890 44
2009-08-05 07:04:52 51°13.663 2°55.96 3.4 342 21.5 101890 44
2009-08-05 07:04:57 51°13.663 2°55.96 3.6 344 21.6 101890 43
2009-08-05 07:05:02 51°13.663 2°55.96 5 343 21.6 101890 43
2009-08-05 07:05:07 51°13.663 2°55.96 3.8 338 21.6 101900 43
2009-08-05 07:05:12 51°13.663 2°55.96 4.2 342 21.6 101900 43
2009-08-05 07:05:17 51°13.663 2°55.96 4 339 21.6 101890 44
2009-08-05 07:05:22 51°13.663 2°55.96 4 343 21.6 101890 44
2009-08-05 07:05:27 51°13.663 2°55.96 4 340 21.6 101890 43
2009-08-05 07:05:32 51°13.663 2°55.96 3.9 342 21.6 101890 43
2009-08-05 07:05:36 51°13.663 2°55.96 3.9 340 21.6 101900 44
2009-08-05 07:05:42 51°13.662 2°55.959 3.4 348 21.6 101900 44
2009-08-05 07:05:47 51°13.662 2°55.959 4 351 21.6 101890 43
2009-08-05 07:05:52 51°13.662 2°55.959 3.6 342 21.6 101890 43
2009-08-05 07:05:56 51°13.662 2°55.959 2.3 347 21.6 101890 43
2009-08-05 07:06:02 51°13.662 2°55.959 3.9 349 21.6 101890 43
2009-08-05 07:06:07 51°13.662 2°55.959 3.5 356 21.6 101900 43
2009-08-05 07:06:12 51°13.662 2°55.959 4.1 338 21.6 101900 43
2009-08-05 07:06:16 51°13.662 2°55.959 4.4 347 21.6 101900 43
2009-08-05 07:06:22 51°13.662 2°55.959 4.8 347 21.6 101900 43
2009-08-05 07:06:27 51°13.662 2°55.959 2.9 356 21.6 101900 43
2009-08-05 07:06:32 51°13.662 2°55.959 4 355 21.6 101900 43
2009-08-05 07:06:36 51°13.662 2°55.959 2.9 346 21.6 101900 44
2009-08-05 07:06:42 51°13.662 2°55.959 4 353 21.6 101900 44
2009-08-05 07:06:47 51°13.662 2°55.959 3.5 1 21.6 101890 43
2009-08-05 07:06:52 51°13.662 2°55.959 3.2 343 21.6 101890 43
2009-08-05 07:06:56 51°13.662 2°55.959 2.8 351 21.6 101900 43
2009-08-05 07:07:02 51°13.662 2°55.959 3.2 352 21.6 101900 43
2009-08-05 07:07:07 51°13.662 2°55.959 3.9 349 21.6 101900 43
2009-08-05 07:07:12 51°13.662 2°55.959 3.5 352 21.6 101900 43
2009-08-05 07:07:16 51°13.662 2°55.959 4 354 21.6 101900 44
2009-08-05 07:07:22 51°13.662 2°55.959 3.8 346 21.6 101900 44
2009-08-05 07:07:27 51°13.662 2°55.959 3.2 348 21.6 101900 44
2009-08-05 07:07:32 51°13.662 2°55.959 2.7 350 21.6 101900 44
2009-08-05 07:07:36 51°13.662 2°55.959 3.3 348 21.6 101900 43
2009-08-05 07:07:42 51°13.662 2°55.959 4.4 351 21.6 101900 43
2009-08-05 07:07:47 51°13.662 2°55.959 4.4 351 21.6 101900 43
2009-08-05 07:07:52 51°13.663 2°55.957 4.5 342 21.6 101900 43
2009-08-05 07:07:57 51°13.663 2°55.956 2.8 5 21.5 101900 43
2009-08-05 07:08:02 51°13.663 2°55.953 1.7 360 21.5 101900 43
2009-08-05 07:08:07 51°13.664 2°55.95 1.1 356 21.5 101900 44
2009-08-05 07:08:12 51°13.665 2°55.947 2.6 357 21.5 101900 44
2009-08-05 07:08:17 51°13.666 2°55.942 2.4 1 21.5 101900 43
2009-08-05 07:08:23 51°13.667 2°55.936 2.8 -999 21.5 101900 43
2009-08-05 07:08:28 51°13.669 2°55.931 2 2 21.5 101900 44
2009-08-05 07:08:34 51°13.671 2°55.925 2.7 357 21.5 101900 44
2009-08-05 07:08:40 51°13.673 2°55.918 1.6 351 21.6 101900 44
2009-08-05 07:08:46 51°13.675 2°55.91 2.7 4 21.6 101900 44
2009-08-05 07:08:51 51°13.677 2°55.904 2.4 10 21.6 101900 44
2009-08-05 07:08:55 51°13.678 2°55.899 2.1 21 21.6 101900 44
2009-08-05 07:09:00 51°13.68 2°55.892 2.1 17 21.6 101900 44
2009-08-05 07:09:06 51°13.682 2°55.884 2.5 23 21.6 101900 44
2009-08-05 07:09:11 51°13.684 2°55.877 2.5 13 21.6 101900 44
2009-08-05 07:09:15 51°13.685 2°55.871 3.8 13 21.6 101900 44
2009-08-05 07:09:20 51°13.687 2°55.864 3.5 23 21.6 101900 44
2009-08-05 07:09:26 51°13.688 2°55.855 3.9 23 21.6 101900 44
2009-08-05 07:09:31 51°13.69 2°55.848 3.2 22 21.6 101900 43
2009-08-05 07:09:35 51°13.691 2°55.842 3.7 22 21.6 101900 43
2009-08-05 07:09:40 51°13.692 2°55.834 3.6 28 21.6 101900 44
2009-08-05 07:09:45 51°13.693 2°55.827 3.5 33 21.6 101900 44
2009-08-05 07:09:51 51°13.694 2°55.819 3.4 30 21.6 101900 43
2009-08-05 07:09:55 51°13.694 2°55.813 3.6 32 21.6 101900 43
2009-08-05 07:10:00 51°13.694 2°55.806 3.5 21 21.6 101900 43
2009-08-05 07:10:06 51°13.695 2°55.799 1.7 13 21.6 101900 43
2009-08-05 07:10:11 51°13.695 2°55.792 2.9 15 21.6 101900 44
2009-08-05 07:10:15 51°13.695 2°55.787 4.6 28 21.6 101900 44
2009-08-05 07:10:20 51°13.694 2°55.781 3.8 22 21.6 101900 43
2009-08-05 07:10:26 51°13.694 2°55.774 4.2 19 21.6 101900 43
2009-08-05 07:10:30 51°13.693 2°55.769 3.8 25 21.6 101900 44
2009-08-05 07:10:35 51°13.693 2°55.764 4.4 27 21.6 101900 44
2009-08-05 07:10:40 51°13.692 2°55.758 4.1 19 21.6 101900 43
2009-08-05 07:10:46 51°13.691 2°55.752 3.1 57 21.6 101900 43
2009-08-05 07:10:50 51°13.691 2°55.749 1.8 23 21.6 101890 43
2009-08-05 07:10:55 51°13.69 2°55.744 3 31 21.6 101890 43
2009-08-05 07:11:00 51°13.689 2°55.74 2.9 40 21.6 101900 43
2009-08-05 07:11:05 51°13.688 2°55.737 4.6 40 21.6 101900 43
2009-08-05 07:11:10 51°13.688 2°55.734 3.1 40 21.6 101900 43
2009-08-05 07:11:15 51°13.688 2°55.734 2.6 36 21.6 101900 43
2009-08-05 07:11:19 51°13.689 2°55.734 2.8 34 21.7 101900 43
2009-08-05 07:11:24 51°13.689 2°55.734 2.1 34 21.7 101900 43
2009-08-05 07:11:29 51°13.69 2°55.734 3.2 25 21.7 101900 43
2009-08-05 07:11:34 51°13.691 2°55.734 2.4 17 21.7 101900 43
2009-08-05 07:11:39 51°13.692 2°55.735 2.3 25 21.7 101900 43
2009-08-05 07:11:44 51°13.693 2°55.736 2.6 34 21.7 101900 43
2009-08-05 07:11:48 51°13.694 2°55.736 2.2 34 21.7 101900 43
2009-08-05 07:11:53 51°13.696 2°55.737 2.5 37 21.7 101900 43
2009-08-05 07:11:58 51°13.697 2°55.738 1.9 29 21.7 101900 43
2009-08-05 07:12:04 51°13.699 2°55.739 3.3 36 21.7 101900 43
2009-08-05 07:12:09 51°13.701 2°55.739 2 27 21.7 101900 44
2009-08-05 07:12:14 51°13.704 2°55.739 2.8 52 21.7 101900 44
2009-08-05 07:12:19 51°13.706 2°55.74 3 41 21.7 101900 44
2009-08-05 07:12:24 51°13.708 2°55.739 3 45 21.7 101900 44
2009-08-05 07:12:28 51°13.71 2°55.739 2.8 30 21.7 101900 44
2009-08-05 07:12:33 51°13.713 2°55.739 3 58 21.7 101900 44
2009-08-05 07:12:38 51°13.716 2°55.738 1.9 24 21.7 101900 44
2009-08-05 07:12:43 51°13.719 2°55.736 2 57 21.7 101900 44
2009-08-05 07:12:48 51°13.722 2°55.735 2.9 29 21.7 101900 43
2009-08-05 07:12:53 51°13.725 2°55.732 1.8 51 21.7 101900 43
2009-08-05 07:12:58 51°13.728 2°55.729 2.6 28 21.7 101900 42
2009-08-05 07:13:04 51°13.733 2°55.725 2.6 52 21.7 101900 42
2009-08-05 07:13:09 51°13.737 2°55.721 2.3 28 21.7 101900 43
2009-08-05 07:13:15 51°13.743 2°55.716 2.9 60 21.7 101900 43
2009-08-05 07:13:20 51°13.748 2°55.711 1.9 22 21.7 101900 44
2009-08-05 07:13:24 51°13.752 2°55.707 2.1 61 21.7 101900 44
2009-08-05 07:13:29 51°13.758 2°55.701 3.5 30 21.8 101900 44
2009-08-05 07:13:34 51°13.763 2°55.696 2.8 58 21.8 101900 44
2009-08-05 07:13:39 51°13.769 2°55.69 2.7 21 21.7 101900 43
2009-08-05 07:13:44 51°13.776 2°55.684 1.8 310 21.7 101900 43
2009-08-05 07:13:48 51°13.781 2°55.679 1.7 30 21.8 101900 44
2009-08-05 07:13:53 51°13.787 2°55.673 2 52 21.8 101900 44
2009-08-05 07:13:58 51°13.794 2°55.666 1.8 20 21.8 101900 44
2009-08-05 07:14:03 51°13.801 2°55.66 1.9 58 21.8 101900 44
2009-08-05 07:14:08 51°13.809 2°55.653 1.2 29 21.8 101900 43
2009-08-05 07:14:13 51°13.816 2°55.646 1 56 21.8 101900 43
2009-08-05 07:14:18 51°13.824 2°55.639 0.7 28 21.8 101900 43
2009-08-05 07:14:23 51°13.832 2°55.633 0.5 59 21.8 101900 43
2009-08-05 07:14:28 51°13.84 2°55.626 1.3 23 21.8 101900 43
2009-08-05 07:14:31 51°13.845 2°55.622 1 53 21.8 101900 43
2009-08-05 07:14:37 51°13.855 2°55.613 0.6 23 21.8 101900 43
2009-08-05 07:14:42 51°13.864 2°55.606 0.8 57 21.8 101900 43
2009-08-05 07:14:47 51°13.873 2°55.599 0.8 27 21.8 101900 43
2009-08-05 07:14:52 51°13.882 2°55.592 1.2 310 21.8 101900 43
2009-08-05 07:14:56 51°13.889 2°55.586 1.1 258 21.8 101900 43
2009-08-05 07:15:02 51°13.901 2°55.577 1.5 50 21.8 101900 43
2009-08-05 07:15:07 51°13.91 2°55.569 1.5 30 21.8 101900 43
2009-08-05 07:15:12 51°13.92 2°55.562 2.1 59 21.8 101900 43
2009-08-05 07:15:17 51°13.929 2°55.554 2.6 29 21.9 101900 44
2009-08-05 07:15:22 51°13.939 2°55.546 2.5 310 21.9 101900 44
2009-08-05 07:15:27 51°13.949 2°55.539 2.1 16 21.8 101900 43
2009-08-05 07:15:32 51°13.959 2°55.53 2.2 52 21.8 101900 43
2009-08-05 07:15:37 51°13.969 2°55.523 1.7 258 21.9 101900 43
2009-08-05 07:15:42 51°13.979 2°55.515 1.7 299 21.9 101900 43
2009-08-05 07:15:47 51°13.989 2°55.507 1.9 259 21.9 101900 43
2009-08-05 07:15:52 51°13.999 2°55.499 1.1 310 21.9 101900 43
2009-08-05 07:15:56 51°14.007 2°55.493 1.2 21 21.9 101900 43
2009-08-05 07:16:02 51°14.019 2°55.483 1.1 301 21.9 101900 43
2009-08-05 07:16:07 51°14.03 2°55.476 1.7 242 21.9 101900 43
2009-08-05 07:16:12 51°14.04 2°55.468 1.4 303 21.9 101900 43
2009-08-05 07:16:17 51°14.05 2°55.46 1.5 20 21.9 101900 43
2009-08-05 07:16:22 51°14.06 2°55.452 1.2 304 21.9 101900 43
2009-08-05 07:16:27 51°14.071 2°55.445 1.2 26 21.9 101900 43
2009-08-05 07:16:32 51°14.081 2°55.437 1.8 308 21.9 101900 43
2009-08-05 07:16:36 51°14.089 2°55.43 1.5 28 21.9 101900 43
2009-08-05 07:16:42 51°14.102 2°55.42 0.6 302 21.9 101900 43
2009-08-05 07:16:47 51°14.112 2°55.412 1.7 27 22 101900 43
2009-08-05 07:16:52 51°14.122 2°55.404 1.8 302 22 101900 43
2009-08-05 07:16:56 51°14.13 2°55.397 1.6 248 22 101900 44
2009-08-05 07:17:02 51°14.142 2°55.386 2.3 310 22 101900 44
2009-08-05 07:17:07 51°14.152 2°55.377 2.4 30 22 101900 43
2009-08-05 07:17:12 51°14.162 2°55.368 1.7 301 22 101900 43
2009-08-05 07:17:17 51°14.172 2°55.358 3.4 252 22 101900 44
2009-08-05 07:17:22 51°14.181 2°55.348 2.1 309 22 101900 44
2009-08-05 07:17:27 51°14.19 2°55.338 1.7 324 22 101900 43
2009-08-05 07:17:32 51°14.2 2°55.328 1.3 348 22 101900 43
2009-08-05 07:17:36 51°14.207 2°55.319 2.3 249 22 101900 43
2009-08-05 07:17:42 51°14.218 2°55.306 3.6 309 22 101900 43
2009-08-05 07:17:47 51°14.226 2°55.294 3.4 251 22 101900 44
2009-08-05 07:17:52 51°14.235 2°55.282 3.4 308 22 101900 44
2009-08-05 07:17:56 51°14.242 2°55.272 2.2 247 22.1 101900 43
2009-08-05 07:18:02 51°14.252 2°55.256 2.2 310 22.1 101900 43
2009-08-05 07:18:07 51°14.26 2°55.242 2 28 22.1 101900 43
2009-08-05 07:18:12 51°14.268 2°55.228 2.3 303 22.1 101900 43
2009-08-05 07:18:16 51°14.275 2°55.217 1.9 20 22.1 101900 42
2009-08-05 07:18:22 51°14.285 2°55.199 1.4 301 22.1 101900 42
2009-08-05 07:18:27 51°14.293 2°55.184 1.9 21 22.1 101900 43
2009-08-05 07:18:32 51°14.301 2°55.169 3.1 307 22.1 101900 43
2009-08-05 07:18:36 51°14.308 2°55.157 2.4 21 22.1 101900 43
2009-08-05 07:18:42 51°14.317 2°55.137 2.3 302 22.1 101900 43
2009-08-05 07:18:47 51°14.326 2°55.122 2.9 29 22.1 101900 43
2009-08-05 07:18:52 51°14.334 2°55.105 2.4 309 22.1 101900 43
2009-08-05 07:18:57 51°14.342 2°55.088 2.2 28 22.1 101900 42
2009-08-05 07:19:02 51°14.35 2°55.071 1.5 309 22.1 101900 42
2009-08-05 07:19:07 51°14.358 2°55.053 3 315 22.1 101900 42
2009-08-05 07:19:12 51°14.367 2°55.035 3 308 22.1 101900 42
2009-08-05 07:19:16 51°14.374 2°55.02 3.1 27 22.1 101900 42
2009-08-05 07:19:22 51°14.384 2°54.997 3.8 309 22.1 101900 42
2009-08-05 07:19:27 51°14.392 2°54.978 2.8 321 22.1 101900 42
2009-08-05 07:19:32 51°14.402 2°54.959 2.9 306 22.1 101900 42
2009-08-05 07:19:37 51°14.411 2°54.941 5.3 31 22.1 101900 43
2009-08-05 07:19:42 51°14.421 2°54.922 3.3 302 22.1 101900 43
2009-08-05 07:19:47 51°14.431 2°54.904 3.7 29 22.1 101900 42
2009-08-05 07:19:52 51°14.441 2°54.885 4.5 300 22.1 101900 42
2009-08-05 07:19:56 51°14.449 2°54.87 4.1 316 22.1 101890 42
2009-08-05 07:20:02 51°14.462 2°54.848 4.1 307 22.1 101890 42
2009-08-05 07:20:07 51°14.474 2°54.832 3.1 29 22.1 101900 42
2009-08-05 07:20:12 51°14.486 2°54.816 3 302 22.1 101900 42
2009-08-05 07:20:16 51°14.495 2°54.804 2.8 27 22.1 101890 43
2009-08-05 07:20:22 51°14.51 2°54.787 4 307 22.1 101890 43
2009-08-05 07:20:27 51°14.523 2°54.772 2.6 31 22.1 101900 42
2009-08-05 07:20:32 51°14.535 2°54.758 3.3 307 22.1 101900 42
2009-08-05 07:20:36 51°14.546 2°54.748 2.5 242 22.1 101890 42
2009-08-05 07:20:42 51°14.562 2°54.733 1.2 300 22.1 101890 42
2009-08-05 07:20:47 51°14.575 2°54.722 2.7 21 22.1 101890 43
2009-08-05 07:20:52 51°14.589 2°54.712 1.4 304 22.1 101890 43
2009-08-05 07:20:56 51°14.6 2°54.705 1.1 248 22.1 101890 42
2009-08-05 07:21:02 51°14.617 2°54.696 0.9 300 22.1 101890 42
2009-08-05 07:21:07 51°14.631 2°54.689 1 254 22.1 101900 43
2009-08-05 07:21:12 51°14.646 2°54.683 0.9 300 22.1 101900 43
2009-08-05 07:21:17 51°14.66 2°54.677 0.8 33 22.1 101890 43
2009-08-05 07:21:22 51°14.674 2°54.672 0.7 57 22.1 101890 43
2009-08-05 07:21:27 51°14.689 2°54.666 0.4 27 22.1 101900 43
2009-08-05 07:21:32 51°14.703 2°54.66 0.9 59 22.1 101900 43
2009-08-05 07:21:36 51°14.715 2°54.656 0.8 28 22.1 101900 42
2009-08-05 07:21:42 51°14.733 2°54.649 0.4 57 22.1 101900 42
2009-08-05 07:21:47 51°14.747 2°54.644 0.6 27 22.1 101900 42
2009-08-05 07:21:52 51°14.762 2°54.639 0.5 55 22.1 101900 42
2009-08-05 07:21:57 51°14.776 2°54.634 0.3 32 22.1 101900 42
2009-08-05 07:22:02 51°14.791 2°54.629 0.3 52 22.1 101900 42
2009-08-05 07:22:07 51°14.806 2°54.624 0.6 24 22.2 101900 43
2009-08-05 07:22:12 51°14.821 2°54.619 0.6 56 22.2 101900 43
2009-08-05 07:22:17 51°14.835 2°54.614 0.4 22 22.2 101900 43
2009-08-05 07:22:22 51°14.85 2°54.609 0.1 50 22.2 101900 43
2009-08-05 07:22:27 51°14.865 2°54.605 0.1 23 22.2 101890 43
2009-08-05 07:22:32 51°14.88 2°54.599 0.1 62 22.2 101890 43
2009-08-05 07:22:36 51°14.891 2°54.595 0.3 24 22.2 101900 43
2009-08-05 07:22:42 51°14.909 2°54.588 0.2 59 22.2 101900 43
2009-08-05 07:22:47 51°14.924 2°54.583 0.2 30 22.2 101900 43
2009-08-05 07:22:52 51°14.939 2°54.577 0.4 53 22.2 101900 43
2009-08-05 07:22:57 51°14.953 2°54.572 0.8 31 22.2 101900 43
2009-08-05 07:23:02 51°14.968 2°54.566 0.8 57 22.2 101900 43
2009-08-05 07:23:07 51°14.983 2°54.561 0.8 20 22.2 101900 43
2009-08-05 07:23:12 51°14.998 2°54.556 1.3 52 22.2 101900 43
2009-08-05 07:23:16 51°15.009 2°54.551 1.2 22 22.2 101900 43
2009-08-05 07:23:22 51°15.027 2°54.545 1.3 292 22.2 101900 43
2009-08-05 07:23:27 51°15.041 2°54.539 1.4 23 22.3 101900 43
2009-08-05 07:23:32 51°15.056 2°54.533 1.7 270 22.3 101900 43
2009-08-05 07:23:36 51°15.067 2°54.529 1.6 34 22.3 101900 42
2009-08-05 07:23:42 51°15.084 2°54.522 1.3 59 22.3 101900 42
2009-08-05 07:23:47 51°15.098 2°54.517 1.2 28 22.3 101900 42
2009-08-05 07:23:52 51°15.113 2°54.512 1.2 51 22.3 101900 42
2009-08-05 07:23:56 51°15.124 2°54.509 1.1 31 22.3 101900 43
2009-08-05 07:24:02 51°15.141 2°54.503 1.9 61 22.3 101900 43
2009-08-05 07:24:07 51°15.156 2°54.498 1.4 29 22.3 101900 43
2009-08-05 07:24:12 51°15.17 2°54.494 1.4 50 22.3 101900 43
2009-08-05 07:24:17 51°15.185 2°54.489 1 22 22.3 101900 42
2009-08-05 07:24:22 51°15.199 2°54.484 0.4 55 22.3 101900 42
2009-08-05 07:24:27 51°15.214 2°54.48 0.3 26 22.4 101900 43
2009-08-05 07:24:32 51°15.228 2°54.475 0.5 52 22.4 101900 43
2009-08-05 07:24:36 51°15.24 2°54.472 0.9 270 22.4 101900 43
2009-08-05 07:24:42 51°15.257 2°54.466 1.2 59 22.4 101900 43
2009-08-05 07:24:47 51°15.272 2°54.462 1.1 263 22.4 101900 43
2009-08-05 07:24:52 51°15.286 2°54.457 0.9 304 22.4 101900 43
2009-08-05 07:24:57 51°15.301 2°54.452 1.1 22 22.4 101900 43
2009-08-05 07:25:02 51°15.315 2°54.447 0.8 301 22.4 101900 43
2009-08-05 07:25:07 51°15.33 2°54.441 1.3 20 22.4 101900 43
2009-08-05 07:25:12 51°15.344 2°54.436 1.1 301 22.4 101900 43
2009-08-05 07:25:16 51°15.356 2°54.432 1.4 324 22.4 101900 43
2009-08-05 07:25:22 51°15.373 2°54.425 1.6 331 22.4 101900 43
2009-08-05 07:25:27 51°15.388 2°54.42 1.1 328 22.5 101900 43
2009-08-05 07:25:32 51°15.402 2°54.415 0.9 336 22.5 101900 43
2009-08-05 07:25:36 51°15.414 2°54.41 0.7 338 22.5 101900 44
2009-08-05 07:25:42 51°15.431 2°54.405 0.5 341 22.5 101900 44
2009-08-05 07:25:47 51°15.446 2°54.4 0.6 349 22.5 101900 44
2009-08-05 07:25:52 51°15.46 2°54.396 0.2 352 22.5 101900 44
2009-08-05 07:25:56 51°15.472 2°54.393 0.1 360 22.5 101900 44
2009-08-05 07:26:02 51°15.489 2°54.389 0.4 2 22.5 101900 44
2009-08-05 07:26:07 51°15.504 2°54.386 0.8 19 22.5 101900 43
2009-08-05 07:26:12 51°15.519 2°54.384 0.8 24 22.5 101900 43
2009-08-05 07:26:16 51°15.53 2°54.381 1.2 35 22.5 101900 43
2009-08-05 07:26:22 51°15.547 2°54.379 1.4 36 22.5 101900 43
2009-08-05 07:26:27 51°15.56 2°54.377 1.2 33 22.5 101900 43